Regional Weather Roundup
Issued by NWS Charleston, SC

Current Version | Previous Version | Graphics & Text | Print | Product List | Glossary On
Versions: 1 2 3 4 5 6 7 8 9 10 11 12 13 14 15 16 17 18 19 20 21 22 23 24 25 26 27 28 29 30 31 32 33 34 35 36 37 38 39 40 41 42 43 44 45 46 47 48 49 50
000 ASUS42 KCHS 252212 RWRCHS REGIONAL WEATHER ROUNDUP NATIONAL WEATHER SERVICE CHARLESTON SC 600 PM EDT THU MAY 25 2017 NOTE: "FAIR" INDICATES FEW OR NO CLOUDS BELOW 12,000 FEET WITH NO SIGNIFICANT WEATHER AND/OR OBSTRUCTIONS TO VISIBILITY. NOT ALL STATIONS ARE QUALITY CONTROLLED. USE DATA WITH CAUTION... ESPECIALLY DEWPOINT OBSERVATIONS. SCZ027-030-031-034>040-042>050-252300- ...SOUTHEAST SOUTH CAROLINA... CITY SKY/WX TMP DP RH WIND PRES REMARKS N CHARLESTON MOSUNNY 76 49 38 W22G29 29.74R WATERFRONT PRK N/A 76 53 44 SW9 29.72R JOHNS ISLAND FAIR 75 52 43 W12G21 29.75R PINOPOLIS N/A 73 57 56 W16G23 29.66R MONCKS CORNER FAIR 73 48 40 SW8G16 29.74R SUMMERVILLE FAIR 73 52 46 W8G22 29.75S BEAUFORT MCAS MOSUNNY 77 52 41 W16G25 29.77R BEAUFORT ARPT NOT AVBL HILTON HEAD IS MOSUNNY 77 52 41 W16G25 29.78R WALTERBORO PTCLDY 75 50 41 W16G23 29.76S ALLENDALE FAIR 75 50 41 W8G20 29.77R ...SOUTHERN MIDLANDS AND PEE DEE... CITY SKY/WX TMP DP RH WIND PRES REMARKS GEORGETOWN FAIR 73 52 46 W12G25 29.73R KINGSTREE NOT AVBL ORANGEBURG MOSUNNY 74 52 46 W15G25 29.75R BARNWELL FAIR 77 55 47 SW12 29.77R AIKEN FAIR 72 50 46 W16G26 29.79R MANNING NOT AVBL COLUMBIA MOSUNNY 76 51 41 W24G31 29.72R SUMTER SUNNY 75 51 41 W20 29.69R FLORENCE MOSUNNY 74 53 48 W21G28 29.69R MYRTLE BEACH MOSUNNY 75 55 50 W14G22 29.70S N MYRTLE BEACH MOSUNNY 74 53 48 W17G25 29.68S $$ GAZ063-065-086>088-099>101-113>116-118-119-134>141-150-252300- ...SOUTHEAST GEORGIA... CITY SKY/WX TMP DP RH WIND PRES REMARKS SAVANNAH ARPT MOSUNNY 80 49 33 W16G25 29.79R HUNTER AAF SUNNY 77 59 52 W13G18 29.76S FORT STEWART SUNNY 78 51 39 W15G22 29.77S STATESBORO SUNNY 77 52 41 W14G22 29.79S SYLVANIA CLEAR 76 54 47 NW14G22 29.79R CLAXTON FAIR 76 55 49 SW9 29.80S ...CSRA...CENTRAL AND FAR SOUTHEAST GEORGIA... CITY SKY/WX TMP DP RH WIND PRES REMARKS THOMSON MOSUNNY 73 50 44 NW10G16 29.83R AUGUSTA-BUSH MOSUNNY 76 50 40 W16G23 29.76R AUGUSTA-DANIEL MOSUNNY 76 48 37 SW8G17 29.77S SWAINSBORO FAIR 75 52 43 W9 29.81R VIDALIA MOSUNNY 77 52 41 NW12G17 29.81S EASTMAN FAIR 77 33 20 W10 29.84S HAZLEHURST FAIR 78 51 40 W3 29.81S ALMA SUNNY 78 49 35 NW15G22 29.81S WAYCROSS SUNNY 81 53 37 NW10 29.81S JESUP FAIR 79 45 29 NW14 29.81S BAXLEY FAIR 79 55 44 NW9 29.81S BRUNSWICK SUNNY 79 54 41 W13G22 29.81S SAINT SIMONS SUNNY 80 49 33 W14G22 29.80R $$ SCZ027-028-034-036>038-045-046-048>050-GAZ119-141-252300- ...LAKE AND SUPPLEMENTAL COASTAL OBSERVATIONS... STATION/POSITION TIME TEMP WIND PRES WAVE SWELL AIR SEA DIR/SP/G HT/PER HT/PER/DIR (UTC) (F) (DEG/KT/KT) (MB) (FT/S) (FT/S/D) WINYAH BAY NOT AVBL LAKE MURRAY 2120 73 260/ 20/ 26 1005.4 ACE BASIN NERRS 2045 76 250/ 5 1008.0 FORT PULASKI 2148 75 290/ 16/ 20 1008.8R SAPELO ISLAND 2100 78 270/ 15 1009.0 $$ ANZ835-935-AMZ111-154-330-350-352-354-370-450-454-472-252300- ...C-MAN AND BUOY OBSERVATIONS... STATION/POSITION TIME TEMP WIND PRES WAVE SWELL AIR SEA DIR/SP/G HT/PER HT/PER/DIR (UTC) (F) (DEG/KT/KT) (MB) (FT/S) (FT/S/D) BUOY 41004 2150 73 75 260/ 19/ 27 1006.9S 7/ 7 2/220/12 BUOY 41008 2050 76 77 260/ 16/ 19 1008.4 4/ 5 FOLLY BEACH CMAN 2200 75 260/ 12/ 15 1008.0R CAPERS NEARSHORE 2108 80 77 280/ 19/ 27 1006.4R FRIPP NEARSHORE 2108 74 77 280/ 17/ 25 1007.3F STATION/POSITION TIME TEMP WIND PRES WAVE SWELL AIR SEA DIR/SP/G HT/PER HT/PER/DIR (UTC) (F) (DEG/KT/KT) (MB) (FT/S) (FT/S/D) 5E ST. MARYS GA 2130 78 N/A 2/ 3 FRYING PAN BUOY 2150 73 75 250/ 17/ 23 1005.5F 9/ 8 5/190/ 8 BUOY 41025 2150 75 78 240/ 37/ 45 1001.0F 9/ 7 5/200/ 8 CAPE LOOKOUT NC 2200 68 240/ 16/ 20 1003.6F BUOY 41002 2050 74 76 220/ 17/ 19 1008.8 11/ 8 8/180/ 8 BUOY 41010 2150 78 78 260/ 6/ 10 1011.5R 6/ 7 7/210/ 7 ST AUGUSTINE FL 2200 82 77 260/ 10/ 13 1010.9R $$

USA.gov is the U.S. government's official web portal to all federal, state and local government web resources and services.